Regional Weather Roundup
Issued by NWS

Home | Current Version | Previous Version | Graphics & Text | Print | Product List | Glossary On
Versions: 1 2 3 4 5 6 7 8 9 10 11 12 13 14 15 16 17 18 19 20 21 22 23 24 25 26 27 28 29 30 31 32 33 34 35 36 37 38 39 40 41 42 43 44 45 46 47 48 49 50
000
ASUS43 KDTX 241810
RWRMI
MICHIGAN HOURLY REGIONAL WEATHER ROUNDUP
NATIONAL WEATHER SERVICE DETROIT/PONTIAC MI
200 PM EDT THU JUL 24 2014

NOTE: "FAIR" INDICATES FEW OR NO CLOUDS BELOW 12,000 FEET WITH NO
SIGNIFICANT WEATHER AND/OR OBSTRUCTION TO VISIBILITY.

MIZ047>049-052>055-059>063-066>070-074>076-081>083-241900-
SOUTHEAST LOWER MICHIGAN

CITY           SKY/WX    TMP DP  RH WIND       PRES   REMARKS
ADRIAN         PTSUNNY   73  47  39 NE8       30.11F
6HR MIN TEMP:  59; 6HR MAX TEMP:  74;

ALMA           PTSUNNY   71  46  39 NE3       30.14S
6HR MIN TEMP:  56; 6HR MAX TEMP:  71;

ANN ARBOR      MOSUNNY   73  48  41 NE9       30.11F
BAD AXE        PTSUNNY   70  47  43 NW10      30.12F
6HR MIN TEMP:  58; 6HR MAX TEMP:  70;

DETROIT CITY   PTSUNNY   76  47  35 N8        30.10F
6HR MIN TEMP:  63; 6HR MAX TEMP:  76;

DETROIT        MOSUNNY   75  47  36 NW9       30.10F
6HR MIN TEMP:  60; 6HR MAX TEMP:  76;

FLINT          PTSUNNY   73  47  39 MISG      30.12F
6HR MIN TEMP:  60; 6HR MAX TEMP:  74;

GROSSE ILE     MOSUNNY   73  50  43 NE6       30.09F
HILLSDALE      PTSUNNY   71  48  44 N6        30.13S
HOWELL         PTSUNNY   70  45  40 NE5       30.13S
6HR MIN TEMP:  55; 6HR MAX TEMP:  71;


CITY           SKY/WX    TMP DP  RH WIND       PRES   REMARKS
JACKSON        PTSUNNY   71  52  50 MISG      30.13F
6HR MIN TEMP:  58; 6HR MAX TEMP:  74;

LAMBERTVILLE   PTSUNNY   72  46  40 NE9       30.10F
LANSING        MOSUNNY   72  50  45 N8        30.14S
6HR MIN TEMP:  57; 6HR MAX TEMP:  72;

LAPEER         NOT AVBL
MASON          PTSUNNY   70  49  48 NW9       30.13S
MONROE         MOSUNNY   73  48  40 E7        30.09F
MT. CLEMENS    PTSUNNY   72  52  48 VRB6      30.09F
6HR MIN TEMP:  60; 6HR MAX TEMP:  72;

PONTIAC        PTSUNNY   71  47  42 N9G18     30.11F
6HR MIN TEMP:  59; 6HR MAX TEMP:  72;

PORT HOPE        N/A     67  57  70 N5        30.12F
6HR MIN TEMP:  63; 6HR MAX TEMP:  67;

PORT HURON     MOSUNNY   70  54  56 NE9       30.11S
TRI CITIES     CLOUDY    71  50  47 N6        30.13F
6HR MIN TEMP:  57; 6HR MAX TEMP:  74;

YPSILANTI      MOSUNNY   78  46  32 VRB6      30.11F
6HR MIN TEMP:  63; 6HR MAX TEMP:  79;

$$
MIZ043>046-050>051-056>058-064>065-071>073-077>080-241900-
SOUTHWEST LOWER MICHIGAN

CITY           SKY/WX    TMP DP  RH WIND       PRES   REMARKS
BATTLE CREEK   PTSUNNY   71  48  43 NE10      30.14F
6HR MIN TEMP:  59; 6HR MAX TEMP:  74;

BENTON HARBOR  SUNNY     68  53  58 NW8       30.15F
6HR MIN TEMP:  57; 6HR MAX TEMP:  70;

BIG RAPIDS     SUNNY     72  45  37 CALM      30.14S
6HR MIN TEMP:  54; 6HR MAX TEMP:  72;

COLDWATER      MOSUNNY   72  48  42 N5        30.13S
6HR MIN TEMP:  61; 6HR MAX TEMP:  72;

HOLLAND        MOSUNNY   74  53  48 VRB5      30.15F
6HR MIN TEMP:  59; 6HR MAX TEMP:  74;

GRAND RAPIDS   MOSUNNY   74  51  44 NE6       30.14F
6HR MIN TEMP:  58; 6HR MAX TEMP:  74;

KALAMAZOO      PTSUNNY   72  48  42 MISG      30.13F
6HR MIN TEMP:  59; 6HR MAX TEMP:  73;

MARSHALL       SUNNY     71  49  46 E6        30.12F
MUSKEGON       MOSUNNY   72  50  45 W13       30.15F
6HR MIN TEMP:  59; 6HR MAX TEMP:  74;

$$
MIZ016>042-241900-
NORTHERN LOWER MICHIGAN

CITY           SKY/WX    TMP DP  RH WIND       PRES   REMARKS
ALPENA         MOSUNNY   73  50  44 N10       30.11F
6HR MIN TEMP:  54; 6HR MAX TEMP:  73;

BEAVER ISLAND  SUNNY     70  52  52 W10       30.13F
6HR MIN TEMP:  56; 6HR MAX TEMP:  70;

BELLAIRE       SUNNY     70  48  45 NW5       30.13F
6HR MIN TEMP:  49; 6HR MAX TEMP:  70;

CADILLAC       SUNNY     68  49  50 NE5       30.14F
CHARLEVOIX     MOSUNNY   69  49  47 W8        30.16F
6HR MIN TEMP:  59; 6HR MAX TEMP:  69;

FRANKFORT      CLEAR     71  49  45 W9        30.15S
GAYLORD        MOSUNNY   68  46  45 N8        30.14F
6HR MIN TEMP:  53; 6HR MAX TEMP:  68;

GRAYLING       MOSUNNY   71  47  42 N7        30.15S
6HR MIN TEMP:  51; 6HR MAX TEMP:  72;

HARBOR SPRINGS SUNNY     67  52  59 SW8       30.13F
HOUGHTON LAKE  MOSUNNY   71  46  40 N7        30.14F
6HR MIN TEMP:  56; 6HR MAX TEMP:  71;

MANISTEE       SUNNY     70  45  40 NW10      30.16F
OSCODA         PTSUNNY   71  48  43 NE6       30.11S
PELLSTON       SUNNY     72  46  39 NW10G21   30.12F
6HR MIN TEMP:  51; 6HR MAX TEMP:  72;

TRAVERSE CITY  MOSUNNY   70  47  43 VRB7      30.13F
6HR MIN TEMP:  54; 6HR MAX TEMP:  71;

$$
MIZ007>008-015-241900-
EASTERN UPPER MICHIGAN

CITY           SKY/WX    TMP DP  RH WIND       PRES   REMARKS
KINROSS        SUNNY     70  50  49 NW14      30.09F
6HR MIN TEMP:  46; 6HR MAX TEMP:  70;

MACKINAC ISLAN SUNNY     64  54  69 SW10G18   30.11F
6HR MIN TEMP:  55; 6HR MAX TEMP:  65;

NEWBERRY       SUNNY     70  52  52 N6        30.10F
6HR MIN TEMP:  51; 6HR MAX TEMP:  70;

S. S. MARIE    SUNNY     69  50  50 NW13      30.09F
6HR MIN TEMP:  54; 6HR MAX TEMP:  69;

$$
MIZ004>006-011>014-085-241900-
CENTRAL UPPER MICHIGAN

CITY           SKY/WX    TMP DP  RH WIND       PRES   REMARKS
MANISTIQUE     SUNNY     69  52  54 S10       30.10F
6HR MIN TEMP:  55; 6HR MAX TEMP:  73;

ESCANABA       SUNNY     70  50  49 S12G17    30.12F
6HR MIN TEMP:  54; 6HR MAX TEMP:  70;

MENOMINEE      MOSUNNY   72  48  43 S9        30.12F
6HR MIN TEMP:  52; 6HR MAX TEMP:  72;

SAWYER-GWINN   SUNNY     72  45  37 S7        30.12F
$$
MIZ001>003-009>011-084-241900-
WESTERN UPPER MICHIGAN

CITY           SKY/WX    TMP DP  RH WIND       PRES   REMARKS
IRON MOUNTAIN  MOSUNNY   73  47  39 VRB6      30.12F
6HR MIN TEMP:  52; 6HR MAX TEMP:  74;

HOUGHTON       SUNNY     71  48  43 W12G17    30.10F
6HR MIN TEMP:  58; 6HR MAX TEMP:  71;

COPPER HARBOR    N/A     69  51  52 N14       30.09F
6HR MIN TEMP:  61; 6HR MAX TEMP:  69;

$$

ABBREVIATIONS USED IN REMARKS
   TC - TEMPERATURE IN CELSIUS
  WCI - WIND CHILL INDEX
   HX - HEAT INDEX
  VSB - VISIBILITY




USA.gov is the U.S. government's official web portal to all federal, state and local government web resources and services.